Temperature
20 21 22 22 22 22 20 18 18 18 17 17 17 17 17 17 17 17 17 16 16 16 16 16 16 15 15 15 15 15 14 14 14 14 14 14 13 13 13 13 13 13 12 12
21 22 22 22 22 21 21 20 18 18 17 17 17 18 17 17 17 16 16 16 16 16 16 16 15 15 15 15 15 14 14 14 14 14 13 13 13 13 13 13 12 12 12 12
19 21 21 20 21 21 20 20 19 18 17 16 16 16 17 17 17 17 17 16 16 16 16 16 15 15 15 15 14 14 14 14 13 13 13 13 13 13 13 12 12 12 12 12
18 20 20 20 20 21 20 20 19 19 17 17 18 18 18 18 17 17 17 16 16 16 16 15 15 15 15 14 14 14 14 13 13 13 13 12 12 12 12 12 12 12 12 12
16 18 19 20 21 20 20 19 19 18 17 17 18 17 16 17 18 18 17 17 16 16 16 15 15 15 14 14 14 13 13 13 13 13 12 12 12 12 12 12 12 12 11 11
16 18 18 19 20 21 20 19 19 18 17 17 17 14 15 17 17 17 17 17 16 16 15 15 15 14 14 14 13 13 13 13 13 12 12 12 12 12 11 11 11 11 11 11
16 17 17 18 20 21 19 19 20 19 18 17 17 18 19 18 17 17 17 16 16 15 15 15 14 14 14 13 13 13 12 12 12 12 12 12 11 11 11 11 11 11 10 10
15 17 18 19 20 19 19 20 20 20 19 19 19 19 18 18 17 17 16 16 15 15 15 14 14 13 13 13 13 12 12 12 12 12 11 11 11 11 11 10 10 10 10 10
16 17 18 20 21 22 22 21 21 20 20 20 19 18 18 17 17 16 16 15 15 15 14 14 13 13 13 12 12 12 12 11 11 11 11 11 10 10 10 10 10 10 9 9
15 17 18 20 21 21 22 21 21 21 20 20 19 18 17 17 16 16 15 15 15 14 14 13 13 12 12 12 12 11 11 11 11 11 11 10 10 10 10 10 9 9 9 9
15 16 18 19 20 21 21 21 20 20 20 19 19 18 17 17 16 16 15 15 14 14 13 13 12 12 12 11 11 11 11 10 10 10 10 10 10 9 9 9 9 8 8 8
16 17 16 19 20 20 20 20 20 19 19 18 18 18 17 16 16 15 15 14 14 13 13 12 12 12 11 11 11 10 10 10 10 10 9 9 9 9 9 9 8 8 8 8
20 20 20 20 19 19 20 19 19 19 18 18 17 17 17 16 15 15 14 14 13 13 13 12 12 11 11 11 10 10 10 10 9 9 9 9 8 8 8 8 8 8 7 7
20 19 19 19 19 19 19 18 18 18 17 17 17 16 16 15 15 14 14 13 13 12 12 12 11 11 11 10 10 10 10 9 9 9 9 8 8 8 8 8 7 7 7 7
19 19 19 19 18 18 18 17 17 17 16 16 16 16 15 15 14 14 13 13 12 12 12 11 11 11 10 10 10 9 9 9 9 8 8 8 8 7 7 7 7 7 7 7
18 18 18 17 17 17 17 17 16 16 16 15 15 15 15 14 14 13 13 12 12 12 11 11 11 10 10 10 9 9 9 9 8 8 8 7 7 7 7 7 6 6 6 6
16 16 16 16 16 16 16 16 16 15 15 15 15 14 14 13 13 13 12 12 11 11 11 11 10 10 10 9 9 9 9 8 8 7 7 7 7 7 6 6 6 6 6 6
16 16 16 16 16 15 15 15 15 15 14 14 14 14 13 13 13 12 12 11 11 11 10 10 10 10 9 9 9 8 8 8 7 7 7 7 6 6 6 6 5 5 5 5
15 15 15 15 15 15 14 14 14 14 14 14 13 13 13 13 12 12 11 11 10 10 10 10 9 9 9 9 8 8 8 7 7 7 6 6 6 6 6 5 5 5 5 5
14 14 14 14 14 14 14 14 13 13 13 13 13 13 12 12 12 11 11 10 10 10 10 9 9 9 8 8 8 7 7 7 7 6 6 6 5 5 5 5 5 4 4 4
13 13 13 13 13 13 13 13 13 13 12 12 12 12 12 11 11 11 10 10 10 9 9 9 8 8 8 8 7 7 7 6 6 6 5 5 5 5 5 4 4 4 4 4
12 12 12 12 12 12 12 12 12 12 12 12 12 11 11 11 10 10 10 9 9 9 8 8 8 8 7 7 7 6 6 6 6 5 5 5 5 4 4 4 4 4 4 3
11 11 11 11 11 11 11 11 11 11 11 11 11 11 10 10 10 9 9 9 9 8 8 8 7 7 7 7 6 6 6 5 5 5 5 4 4 4 4 4 4 3 3 3
11 10 10 10 10 10 10 10 10 10 10 10 10 10 10 9 9 9 9 8 8 8 7 7 7 7 6 6 6 6 5 5 5 5 4 4 4 4 4 3 3 3 3 3
10 10 10 10 9 9 9 9 9 9 9 9 9 9 9 8 8 8 8 8 7 7 7 7 6 6 6 6 5 5 5 5 4 4 4 4 4 3 3 3 3 3 3 2
9 9 9 9 9 9 9 8 8 8 8 8 8 8 8 8 8 7 7 7 7 7 6 6 6 6 5 5 5 5 4 4 4 4 4 3 3 3 3 3 3 2 2 2
8 8 8 8 8 8 8 8 8 7 7 7 7 7 7 7 7 7 7 6 6 6 6 5 5 5 5 5 4 4 4 4 4 4 3 3 3 3 2 2 2 2 2 2
Wind_Speed
6 5 4 6 6 6 6 8 8 9 11 12 14 13 12 11 9 8 7 6 5 4 3 2 2 1 1 0 0 1 2 1 1 1 1 2 3 3 3 3 4 3 3 4
2 3 3 4 6 6 5 5 6 8 7 8 9 9 9 11 11 10 9 7 6 4 3 3 2 2 1 1 0 2 2 0 1 1 1 2 3 3 3 3 3 3 3 4
3 3 2 4 8 8 6 7 10 10 9 9 9 13 14 14 12 11 9 8 7 5 4 3 3 3 2 1 1 2 1 0 1 1 2 3 3 3 3 3 3 4 4 4
1 2 5 9 6 8 8 7 9 9 10 16 14 13 11 11 12 11 10 9 7 6 4 3 2 2 2 2 3 2 1 1 1 1 2 3 3 4 4 3 3 4 5 5
3 3 6 7 4 6 7 5 7 10 11 11 9 7 3 7 10 11 10 8 7 6 5 4 3 3 4 3 3 3 2 2 2 1 2 3 4 5 4 4 4 4 4 5
4 4 6 8 6 3 6 4 6 10 14 13 12 7 8 9 9 9 8 8 7 6 5 5 3 4 5 3 2 1 1 2 2 2 2 3 4 4 4 3 4 4 5 5
5 5 8 8 3 6 5 8 6 12 15 15 12 9 8 11 9 9 8 8 8 7 6 4 4 4 4 2 0 2 2 1 2 2 3 3 3 3 4 4 4 4 5 6
6 4 9 5 6 8 8 3 7 10 12 12 8 7 10 12 11 11 9 7 8 7 5 3 4 5 3 1 2 2 1 1 2 3 3 3 3 4 4 4 4 5 5 6
9 8 6 5 7 5 6 6 6 9 9 11 10 9 10 10 11 10 9 8 6 7 5 3 3 4 4 3 2 1 1 2 3 3 3 3 3 4 4 3 3 4 4 5
3 5 4 3 3 4 6 7 7 9 11 11 11 11 11 10 9 9 8 7 6 7 5 4 3 3 4 3 2 1 1 3 3 3 4 4 3 3 3 4 4 5 5 6
2 3 1 2 3 5 5 7 8 8 9 12 12 11 11 10 10 9 7 6 6 7 6 5 4 4 4 3 2 1 2 3 3 3 4 4 4 4 4 5 5 6 5 5
7 8 7 7 6 6 8 8 10 10 8 9 11 12 11 10 9 9 8 7 6 6 6 5 5 4 4 3 3 2 2 3 3 3 3 3 4 6 7 7 10 11 10 10
7 6 7 6 6 7 8 8 9 10 11 10 9 10 11 9 8 8 8 7 8 7 7 6 5 4 4 4 3 3 4 4 3 3 3 4 4 5 7 8 9 10 12 13
4 4 3 4 6 7 7 7 8 7 8 9 9 9 9 7 7 8 9 8 7 6 6 5 5 5 5 4 4 4 4 5 4 4 4 4 5 5 5 6 8 7 9 12
4 5 6 5 6 6 7 8 8 7 7 7 8 9 10 9 9 8 7 6 5 5 5 5 5 6 5 4 4 5 4 4 4 4 4 4 5 5 6 7 7 8 8 9
3 2 4 7 8 8 8 9 9 8 8 8 8 9 9 9 8 7 6 6 6 6 6 5 6 6 5 4 5 4 5 7 5 4 4 5 5 5 6 6 7 7 8 8
5 4 5 6 7 7 8 9 10 9 9 9 10 9 8 8 7 6 6 6 7 7 6 6 7 6 5 5 5 4 4 5 7 5 4 5 5 6 7 7 7 8 8 10
7 8 8 9 9 7 7 7 8 9 9 8 9 8 9 9 9 8 7 5 4 4 5 7 6 5 5 5 5 4 4 4 4 5 5 6 6 6 6 7 8 9 9 9
2 3 3 5 6 7 7 6 7 7 7 8 9 9 9 9 8 7 6 5 6 6 7 7 8 6 6 7 5 4 4 5 5 6 6 8 8 7 7 8 8 9 9 8
3 3 3 2 3 4 5 5 5 5 6 7 7 7 6 7 7 7 6 7 7 7 7 7 6 6 7 7 7 4 5 6 6 6 6 6 7 8 8 8 9 9 9 9
3 3 3 3 2 2 3 4 4 5 5 6 7 8 8 7 7 7 6 6 7 7 7 8 6 6 6 7 7 5 5 5 6 6 7 7 7 8 8 8 9 9 9 9
2 3 3 3 2 1 1 2 2 3 4 5 6 6 6 6 6 6 7 7 7 8 6 5 5 7 8 7 4 4 5 6 6 6 7 7 7 8 8 9 9 9 9 9
2 2 2 3 3 2 1 1 1 2 4 5 6 7 7 7 6 6 6 6 5 7 5 5 7 9 9 5 4 5 6 6 7 7 7 8 8 8 9 10 9 9 9 9
2 2 2 2 2 1 2 3 2 3 4 5 6 7 6 5 5 6 6 6 7 6 5 7 9 10 8 4 5 5 6 7 7 7 8 8 8 8 8 9 9 9 9 10
2 2 2 1 2 3 4 4 3 3 3 3 5 5 5 6 6 6 5 6 7 6 5 7 10 10 6 5 6 6 7 7 8 7 7 7 8 8 8 8 8 9 8 9
3 4 4 4 4 4 4 3 3 4 4 4 4 4 4 4 5 4 4 5 7 7 6 5 6 7 6 6 7 7 7 8 9 8 7 8 8 9 8 9 10 9 9 9
4 4 3 3 3 4 4 4 4 5 5 4 4 4 4 4 4 4 5 5 5 5 5 6 6 6 7 7 7 7 7 7 8 8 8 8 8 8 9 10 9 8 8 9
Wind_Direction
220 223 194 197 202 186 171 175 177 199 182 191 183 175 172 164 156 151 150 150 151 155 160 149 138 150 153 181 159 115 108 103 262 284 311 328 328 315 314 320 327 325 335 333
283 251 211 209 204 182 180 171 165 154 196 198 174 157 157 162 163 163 164 163 160 153 142 144 154 154 129 108 102 108 111 179 288 354 360 334 317 315 315 313 315 323 322 318
261 299 46 246 217 191 188 179 161 182 203 165 160 171 176 175 173 173 170 165 164 162 164 166 173 159 138 129 95 97 94 359 336 343 333 312 319 330 313 304 307 310 307 308
180 70 230 245 248 191 179 196 187 176 172 172 176 179 179 173 172 173 172 167 166 164 160 158 147 129 110 83 75 75 51 345 323 327 316 319 326 316 304 299 295 291 294 297
137 202 269 289 249 171 164 220 194 169 166 162 134 113 173 190 174 173 172 167 165 163 153 139 129 122 102 78 67 59 33 350 321 320 325 325 316 305 299 300 297 289 291 294
138 179 236 249 250 168 117 233 216 168 159 152 135 159 213 192 167 160 156 155 153 145 129 128 134 117 100 89 70 25 296 301 311 312 318 309 297 296 297 295 288 296 301 298
169 211 259 253 225 112 151 231 200 171 163 163 174 190 175 157 157 154 150 149 144 138 137 151 149 123 113 103 271 265 269 303 326 318 306 293 294 300 303 304 308 307 303 301
159 194 252 229 148 177 210 198 159 167 169 169 162 138 142 151 153 149 145 143 143 141 146 157 148 133 133 199 256 267 291 319 315 310 315 327 316 312 314 313 311 308 309 310
186 210 244 217 195 194 159 147 156 162 164 151 144 150 151 154 154 154 152 152 150 149 152 165 167 151 162 228 247 256 308 307 304 306 306 305 302 309 317 318 309 306 308 307
212 254 250 206 155 146 148 150 152 152 150 149 153 155 154 155 157 158 157 158 154 152 159 183 196 185 194 219 217 197 269 286 295 298 300 304 301 297 301 301 299 301 303 301
236 264 326 286 202 163 137 129 132 139 150 158 153 156 162 164 166 166 164 164 163 167 177 194 201 210 221 221 194 214 259 276 285 285 284 294 295 283 282 271 268 281 282 281
217 215 191 217 213 171 152 156 156 149 149 156 158 162 163 168 171 168 168 167 168 174 183 195 199 214 229 225 200 206 250 269 275 282 284 285 294 307 297 284 292 291 287 286
212 205 196 201 188 174 164 164 165 161 161 162 163 161 161 165 170 167 167 172 180 187 192 197 201 219 232 228 213 216 237 255 265 273 280 284 283 289 302 308 302 297 298 299
197 154 173 187 188 175 161 158 152 150 158 160 161 158 157 155 159 167 179 187 186 185 191 197 204 224 234 225 221 231 240 259 266 261 269 276 278 279 281 292 304 306 303 301
223 204 198 188 168 161 152 144 144 154 157 156 155 158 160 163 171 181 184 179 173 182 197 201 211 233 237 222 220 233 241 250 255 259 265 273 280 284 284 284 287 293 299 303
226 196 169 167 172 171 164 160 164 173 170 166 165 169 171 172 174 175 176 171 173 195 208 209 223 237 234 223 227 239 247 266 273 268 270 278 282 285 287 286 288 289 291 292
189 197 192 189 187 184 183 182 179 179 175 174 179 174 166 161 165 178 192 194 194 203 208 211 227 235 230 221 223 237 246 265 282 284 269 272 277 280 282 283 287 287 284 284
198 197 191 184 181 181 183 180 177 175 178 182 172 164 166 173 185 197 204 202 201 221 230 227 227 228 228 227 226 231 238 249 258 265 271 274 278 278 278 280 284 287 289 290
145 157 172 178 178 175 177 179 178 177 173 166 166 175 185 191 196 201 198 193 204 228 241 236 233 222 228 236 237 230 240 252 262 268 271 278 283 281 279 281 283 285 288 291
103 108 114 120 140 159 169 171 166 169 173 169 170 178 189 200 199 197 195 207 216 221 229 232 230 228 233 239 247 236 242 252 262 270 274 275 278 281 281 282 286 287 287 286
117 114 114 119 117 129 153 160 162 175 183 176 179 191 200 206 202 194 195 223 239 234 232 237 231 232 235 242 251 241 247 256 264 269 273 274 276 279 281 284 286 286 286 287
134 132 132 132 127 133 158 156 170 190 196 196 198 198 197 204 208 210 213 220 231 239 234 229 231 239 244 253 240 242 252 259 265 269 270 273 274 276 279 280 282 283 283 283
159 164 163 168 175 196 218 190 184 203 213 211 204 201 203 207 204 206 234 238 231 237 228 226 235 247 258 253 240 246 256 262 267 269 270 272 273 274 276 279 279 281 281 282
200 215 223 210 166 161 230 251 243 230 224 222 218 212 206 208 225 225 223 230 229 232 226 236 248 260 264 248 245 252 259 263 266 269 270 271 273 275 277 279 281 281 281 284
218 221 221 202 209 225 233 241 250 251 240 240 240 230 219 209 214 226 225 225 231 235 236 249 262 270 264 250 252 258 262 265 270 272 266 271 274 276 278 279 281 283 284 285
229 224 224 223 224 228 227 225 234 242 238 243 251 248 240 234 226 219 218 228 237 245 243 246 252 258 251 249 252 257 261 271 278 275 270 274 275 276 278 279 279 280 283 285
239 236 236 244 247 231 221 219 226 236 231 224 238 246 243 241 238 234 233 235 240 243 246 248 248 247 250 251 255 258 261 263 265 266 269 272 275 276 278 279 279 279 282 284
Height
1502 1498 1498 1499 1499 1500 1505 1512 1520 1519 1519 1516 1515 1516 1519 1521 1524 1526 1528 1529 1530 1531 1532 1532 1532 1532 1532 1532 1532 1532 1531 1531 1530 1529 1529 1528 1526 1525 1524 1523 1522 1520 1518 1517
1501 1495 1496 1498 1497 1498 1500 1503 1508 1511 1514 1508 1510 1514 1517 1520 1522 1524 1526 1527 1528 1529 1530 1530 1531 1531 1531 1531 1530 1530 1529 1529 1528 1527 1526 1525 1524 1523 1522 1521 1519 1518 1516 1514
1511 1500 1499 1507 1497 1496 1497 1497 1501 1509 1507 1505 1510 1511 1513 1516 1518 1520 1522 1524 1526 1527 1528 1529 1529 1529 1529 1529 1529 1528 1528 1527 1526 1525 1524 1523 1522 1521 1520 1518 1517 1515 1514 1512
1513 1508 1517 1501 1486 1486 1490 1491 1491 1493 1496 1499 1501 1505 1509 1511 1514 1517 1520 1522 1524 1525 1526 1527 1528 1528 1528 1528 1527 1526 1526 1525 1524 1523 1522 1521 1519 1518 1517 1516 1514 1512 1511 1509
1517 1517 1509 1495 1484 1484 1490 1492 1488 1490 1493 1497 1500 1506 1510 1511 1512 1514 1517 1519 1522 1523 1525 1525 1526 1526 1526 1526 1525 1524 1523 1522 1521 1520 1519 1518 1516 1515 1514 1513 1511 1509 1508 1506
1515 1514 1515 1495 1480 1478 1485 1494 1486 1486 1490 1495 1500 1509 1507 1507 1510 1513 1515 1518 1520 1522 1523 1524 1524 1524 1524 1524 1523 1522 1521 1520 1519 1518 1516 1515 1514 1512 1511 1509 1507 1506 1504 1502
1511 1512 1502 1483 1478 1480 1498 1492 1481 1483 1486 1490 1493 1495 1498 1503 1507 1510 1513 1515 1518 1519 1521 1521 1522 1522 1522 1521 1521 1520 1519 1518 1517 1515 1514 1512 1511 1509 1507 1505 1504 1502 1500 1498
1509 1510 1502 1476 1478 1482 1481 1476 1478 1481 1483 1487 1490 1494 1497 1500 1504 1507 1510 1513 1515 1517 1518 1519 1520 1520 1519 1519 1518 1518 1517 1515 1514 1513 1511 1509 1507 1506 1504 1502 1499 1497 1495 1492
1490 1488 1476 1472 1472 1473 1474 1475 1477 1479 1483 1486 1489 1492 1495 1499 1502 1505 1508 1510 1513 1514 1516 1517 1517 1517 1517 1516 1516 1515 1514 1512 1511 1509 1508 1506 1504 1502 1500 1498 1495 1493 1490 1487
1481 1476 1472 1471 1471 1472 1473 1474 1476 1479 1482 1485 1488 1491 1494 1497 1500 1503 1505 1508 1510 1511 1513 1514 1514 1514 1514 1514 1513 1512 1511 1509 1508 1506 1504 1503 1501 1498 1496 1493 1491 1488 1486 1483
1479 1474 1472 1471 1471 1472 1473 1475 1477 1479 1481 1484 1486 1489 1492 1495 1497 1500 1503 1505 1507 1508 1509 1510 1511 1511 1511 1511 1510 1508 1507 1506 1504 1502 1500 1498 1497 1495 1492 1490 1488 1485 1482 1479
1475 1469 1470 1469 1470 1471 1472 1473 1475 1478 1480 1483 1485 1487 1489 1492 1495 1497 1500 1502 1504 1505 1507 1507 1508 1508 1508 1507 1506 1505 1503 1502 1500 1498 1496 1494 1492 1490 1487 1485 1483 1480 1477 1475
1464 1464 1465 1466 1467 1469 1470 1472 1474 1475 1477 1480 1483 1485 1487 1489 1492 1494 1497 1499 1500 1502 1503 1504 1504 1504 1504 1503 1503 1501 1500 1498 1496 1494 1492 1490 1487 1484 1481 1479 1477 1474 1471 1468
1461 1462 1463 1464 1465 1466 1468 1470 1472 1474 1476 1478 1480 1483 1485 1487 1489 1491 1493 1495 1497 1498 1499 1500 1500 1500 1500 1499 1498 1497 1496 1494 1492 1490 1487 1485 1483 1480 1476 1473 1470 1467 1465 1462
1459 1459 1459 1460 1462 1464 1466 1467 1469 1471 1473 1475 1478 1480 1482 1484 1486 1488 1490 1492 1494 1495 1495 1496 1496 1496 1496 1495 1494 1492 1491 1489 1487 1485 1482 1480 1477 1474 1471 1468 1465 1461 1458 1455
1455 1456 1457 1457 1459 1461 1462 1464 1466 1468 1470 1472 1474 1476 1479 1481 1483 1485 1487 1488 1489 1490 1491 1491 1491 1491 1491 1490 1489 1487 1486 1484 1482 1479 1477 1474 1471 1469 1466 1462 1459 1455 1452 1448
1452 1452 1453 1454 1455 1457 1458 1460 1462 1464 1466 1469 1471 1473 1475 1477 1479 1481 1483 1484 1485 1486 1486 1486 1486 1486 1486 1485 1483 1482 1480 1478 1476 1473 1471 1468 1466 1463 1460 1456 1453 1449 1446 1443
1447 1448 1449 1450 1451 1453 1455 1457 1459 1461 1463 1465 1467 1469 1471 1473 1474 1476 1478 1479 1480 1481 1481 1481 1481 1481 1480 1479 1477 1476 1474 1472 1470 1467 1464 1462 1459 1457 1454 1450 1446 1443 1439 1435
1444 1445 1446 1447 1448 1450 1451 1453 1455 1457 1459 1461 1463 1465 1466 1468 1470 1472 1473 1474 1474 1475 1475 1476 1475 1474 1474 1473 1471 1469 1467 1465 1463 1460 1458 1455 1453 1450 1447 1444 1440 1436 1432 1428
1441 1443 1444 1445 1446 1447 1448 1450 1452 1453 1455 1457 1459 1461 1462 1464 1465 1466 1467 1468 1468 1469 1469 1469 1469 1468 1467 1466 1465 1463 1461 1458 1456 1454 1451 1448 1446 1443 1440 1437 1433 1429 1425 1421
1439 1441 1442 1443 1443 1445 1446 1447 1448 1450 1451 1453 1454 1456 1457 1459 1460 1461 1461 1462 1463 1463 1463 1463 1462 1462 1461 1459 1458 1456 1454 1452 1449 1447 1444 1442 1439 1436 1433 1429 1426 1422 1418 1414
1438 1439 1440 1441 1442 1443 1443 1444 1445 1447 1448 1449 1450 1451 1452 1453 1454 1455 1455 1456 1456 1457 1457 1456 1456 1455 1454 1453 1451 1449 1447 1445 1443 1440 1438 1435 1432 1428 1425 1422 1418 1414 1410 1406
1436 1437 1438 1439 1440 1440 1441 1442 1442 1443 1444 1444 1445 1446 1447 1447 1448 1449 1449 1450 1450 1450 1450 1450 1449 1449 1448 1446 1445 1443 1441 1439 1436 1434 1431 1428 1425 1421 1418 1414 1411 1407 1402 1398
1434 1435 1436 1437 1437 1437 1438 1438 1439 1439 1440 1440 1441 1442 1442 1442 1443 1443 1444 1444 1444 1444 1444 1443 1443 1442 1441 1440 1438 1436 1434 1432 1429 1426 1423 1420 1417 1414 1411 1407 1403 1399 1394 1390
1432 1432 1433 1433 1434 1434 1435 1435 1435 1436 1436 1435 1436 1436 1437 1437 1438 1438 1438 1438 1438 1438 1437 1437 1437 1436 1434 1433 1431 1429 1427 1425 1422 1419 1416 1413 1410 1406 1403 1399 1395 1391 1386 1382
1428 1429 1429 1430 1430 1430 1430 1431 1431 1431 1431 1431 1431 1431 1431 1432 1432 1432 1432 1432 1432 1432 1431 1430 1429 1428 1427 1425 1424 1422 1420 1417 1415 1412 1409 1406 1402 1399 1395 1392 1388 1383 1379 1375
1424 1424 1425 1425 1425 1426 1426 1426 1426 1426 1426 1426 1426 1426 1426 1426 1426 1426 1426 1426 1426 1425 1424 1423 1422 1421 1419 1418 1416 1414 1412 1410 1407 1404 1401 1398 1394 1391 1387 1384 1380 1376 1372 1367